sat.trackr.live / text

‹ back to catalog

KUIPER-00081

NORAD 65132 · 2025-171A

PAYLOAD ACTIVE UNKNOWN

§ Identity

Operator
Country
US
Launch date
2025-08-11
Launch site
AFETR
Launch vehicle
Mass (kg)
RCS (m²)

External: N2YO · Heavens-Above · Gunter

§ Orbital elements

Epoch: 2026-05-25T00:44:11.455296Z

Period
97.30 min
Inclination
51.8985°
Eccentricity
0.0000404
Mean motion
14.79929353 rev/d
Perigee alt
629.3 km
Apogee alt
629.8 km
Semi-major
7,007.7 km
B*
2.7882e-4
RAAN
170.4938°
Arg perigee
71.2214°
Mean anomaly
288.8792°
Rev number
4,434

§ Raw data

KUIPER-000811 65132U 25171A   26145.03068814  .00001905  00000+0  27882-3 0  99952 65132  51.8985 170.4938 0000404  71.2214 288.8792 14.79929353 44343

JSON: /api/v1/satellites/65132 · /tle

For live sub-satellite position, see the globe view (requires WebGL).

§ Visibility from observer

Set your observer location to see the next 7 days of passes ≥ 10°. The values pass through the URL so the page stays shareable.

No JS? Fill the form by hand. The geolocation button needs JavaScript.